Wind_Speed
25 25 25 24 24 24 24 23 22 22 23 23 21 20 19 19 18 17 15 14 13 12 11 11 11 11 11 11 10 10 10 10 11 11 12 12 12 11 11 11 10 10 9 9
27 25 24 25 25 25 24 23 22 22 24 24 23 22 21 21 19 18 17 16 14 13 12 12 11 11 11 12 11 11 10 11 11 12 12 12 12 12 11 11 11 10 10 9
27 25 26 26 26 25 24 23 22 23 25 25 25 23 23 21 20 19 18 17 15 14 13 13 13 12 12 11 11 11 10 11 12 13 12 13 12 12 12 12 12 11 10 9
27 27 27 27 27 26 24 23 23 24 25 26 26 25 23 22 21 19 19 18 17 15 14 14 13 12 11 11 11 11 11 12 13 13 13 13 13 13 12 12 12 11 11 10
27 27 27 27 27 26 24 25 25 25 26 27 26 26 22 21 20 19 18 18 17 17 16 15 15 14 13 12 12 12 12 12 14 15 15 14 14 14 14 12 12 11 11 11
28 28 28 27 27 27 26 26 27 27 27 28 26 26 23 21 19 19 19 19 19 18 17 17 16 15 15 14 14 13 13 14 15 15 16 15 15 15 14 13 12 12 11 11
28 28 28 28 28 28 28 27 28 28 29 28 26 27 24 21 20 20 20 19 18 17 16 16 16 16 16 16 16 15 14 15 16 16 16 16 15 15 14 14 14 13 12 12
28 28 28 28 27 27 28 28 28 28 28 27 27 27 24 22 21 20 20 19 18 17 16 16 15 16 16 16 16 16 15 16 17 17 17 17 16 15 15 15 14 13 13 13
28 27 27 27 27 27 27 28 27 28 28 28 27 26 24 23 21 21 20 19 18 18 17 16 15 15 16 17 16 16 16 16 17 17 16 15 15 15 15 14 14 13 13 13
28 27 27 27 27 28 28 28 29 29 29 29 28 26 24 23 22 20 20 20 20 18 17 16 16 16 16 17 16 16 16 17 17 17 17 15 15 15 15 15 14 13 13 13
28 28 27 27 28 28 28 29 30 30 31 30 29 26 23 22 21 21 20 19 20 19 18 17 16 17 17 17 17 17 18 18 18 17 16 15 15 15 16 15 14 14 13 13
27 27 27 28 28 29 29 29 30 31 31 30 30 26 23 22 21 21 20 20 20 19 18 18 17 18 17 17 18 17 18 18 19 17 16 15 14 15 15 15 15 14 14 13
27 27 27 28 29 29 30 30 30 31 31 31 29 26 24 23 23 22 21 21 20 19 19 19 19 19 19 18 18 18 18 18 18 17 16 15 15 15 14 14 14 13 13 14
27 28 28 27 28 29 29 30 30 31 31 31 29 27 25 24 24 23 22 22 21 20 21 21 21 19 19 20 20 21 19 18 17 16 15 14 15 14 14 13 13 13 13 14
28 28 27 27 28 28 29 30 30 31 31 31 29 27 26 26 25 24 23 22 22 22 21 21 20 20 20 20 20 19 18 17 16 15 14 14 14 14 14 13 13 13 14 14
28 28 27 27 27 28 29 29 29 30 31 31 30 28 27 27 26 25 24 23 22 22 22 22 21 21 21 20 18 16 17 16 15 14 14 14 14 15 14 13 13 13 14 14
28 28 27 26 26 27 28 27 27 28 29 30 29 27 26 26 26 25 24 23 23 23 22 23 22 22 21 20 18 17 17 17 16 15 14 14 15 15 15 14 14 13 13 13
29 28 28 28 27 28 28 27 27 27 27 28 27 26 27 26 26 26 25 24 24 23 22 22 22 22 21 20 19 18 17 17 16 15 14 15 15 14 14 14 14 14 14 14
28 28 28 28 28 29 28 28 28 27 26 26 26 26 26 26 26 26 25 24 23 23 23 22 22 22 22 21 20 18 17 17 16 14 13 14 14 14 14 14 14 15 15 15
27 28 28 28 27 27 26 27 27 26 26 26 27 27 26 26 26 25 25 24 24 24 23 23 23 22 22 20 19 18 18 16 15 14 14 14 14 14 15 15 15 16 15 15
26 27 27 27 27 27 25 25 25 26 25 25 26 27 27 26 26 25 25 25 24 24 24 24 24 23 22 21 19 18 17 16 16 15 15 15 16 15 16 16 16 17 16 16
25 25 25 25 26 26 25 24 24 25 24 24 25 25 26 25 25 25 24 25 26 25 24 24 24 22 22 20 19 19 18 17 17 17 17 17 17 17 17 17 17 17 17 17
24 24 23 23 24 23 24 24 24 25 25 25 25 25 25 24 24 24 25 25 25 24 24 23 24 24 21 20 18 18 18 18 18 17 18 18 19 19 19 18 18 18 18 18
23 24 23 23 23 23 22 23 23 24 23 23 23 23 23 23 24 23 24 25 25 24 23 23 23 23 22 21 20 18 18 18 18 18 19 19 20 20 20 19 19 19 19 19
21 22 22 22 22 22 22 21 22 22 22 22 22 22 22 23 23 23 23 24 24 24 23 22 22 21 20 20 19 19 19 19 20 20 20 20 20 20 20 20 20 20 20 20
18 21 21 21 22 22 22 21 21 21 20 20 21 21 22 22 22 22 22 22 23 23 22 21 21 20 19 19 19 20 21 20 20 20 21 21 21 21 21 21 21 22 22 21
Wind_Direction
240 241 241 241 243 244 246 246 246 246 249 252 256 256 256 258 261 264 269 273 278 280 284 289 292 295 297 299 301 304 304 305 307 310 314 317 317 312 311 313 306 309 308 307
241 241 241 240 241 244 245 246 246 246 248 252 254 255 256 259 259 261 265 270 276 280 284 286 288 291 291 291 294 295 301 304 304 305 308 312 313 315 311 311 312 307 302 300
242 242 241 242 242 244 247 247 246 247 248 252 253 252 255 259 259 260 263 269 272 276 280 284 287 288 287 289 291 289 296 302 303 304 304 307 307 310 311 309 307 302 296 289
240 240 241 242 244 246 248 247 246 246 248 249 251 252 252 258 261 263 266 268 270 273 274 277 279 281 285 286 285 282 290 296 299 299 302 304 305 302 303 305 303 295 286 280
241 241 241 242 243 245 246 246 246 246 247 248 251 254 251 253 257 261 264 266 267 268 269 269 270 274 278 281 280 283 287 291 295 298 298 298 301 301 298 296 297 292 284 277
239 240 241 241 241 243 244 245 247 246 247 248 249 252 252 251 254 256 260 263 265 264 264 262 262 267 272 277 280 285 285 289 293 295 296 294 296 299 298 293 293 292 285 276
238 239 239 240 241 242 242 244 247 246 247 248 247 250 252 250 253 256 258 259 260 260 262 259 258 264 269 273 278 282 283 287 291 291 292 293 292 296 296 292 291 289 286 279
239 237 239 240 240 241 242 244 246 248 249 248 247 249 251 252 253 255 256 256 257 257 258 258 258 261 265 271 276 279 280 285 287 288 290 289 288 292 295 293 290 288 286 283
238 237 238 239 239 238 239 242 245 247 250 250 249 251 253 253 254 255 255 255 256 257 258 260 262 261 265 269 275 275 275 279 285 286 287 288 288 289 293 290 287 284 283 280
237 237 235 237 237 236 237 239 241 245 249 252 252 253 255 255 255 255 254 255 257 259 260 260 262 265 267 270 271 272 274 278 281 284 288 287 286 287 289 288 284 280 278 277
236 237 234 236 236 236 236 237 240 245 250 252 254 254 256 256 255 256 255 256 258 260 261 257 260 265 267 268 269 270 270 274 280 284 285 285 284 285 287 285 280 278 276 275
236 237 235 235 235 236 237 239 242 246 250 253 255 255 255 256 256 255 255 257 259 260 257 255 258 265 270 272 270 271 273 276 277 281 282 282 282 284 284 281 277 274 273 273
237 238 236 235 234 234 236 238 242 246 249 253 255 256 255 256 256 256 257 258 260 259 257 257 261 266 269 273 274 272 273 274 275 277 278 278 279 282 282 279 275 273 271 271
238 239 239 238 237 237 238 240 243 246 250 253 255 256 256 257 257 257 258 258 258 256 256 258 262 266 269 271 274 273 274 273 273 274 273 276 279 281 281 281 276 273 274 274
238 240 240 239 238 239 241 243 246 248 251 254 255 255 255 255 254 256 257 259 258 257 257 258 261 265 268 271 272 274 274 275 275 273 271 273 276 277 278 278 277 274 275 277
239 239 240 241 239 240 241 243 247 249 252 255 256 256 255 253 252 254 256 258 259 258 259 261 265 267 270 274 271 271 280 276 273 274 271 271 272 272 274 275 277 278 276 275
241 241 241 242 241 240 241 243 246 248 250 253 255 254 254 252 251 252 253 254 256 257 258 262 266 267 268 270 271 273 275 278 276 274 273 270 270 270 271 273 273 276 274 273
241 242 244 245 244 243 241 243 245 246 247 249 250 250 251 251 250 250 250 252 254 259 260 261 262 264 265 266 271 273 273 277 275 272 271 268 268 269 269 269 270 272 272 272
240 241 244 245 245 245 244 245 245 245 246 247 246 246 248 248 249 249 250 252 255 258 259 261 263 265 268 269 273 274 276 278 275 272 269 266 265 266 268 270 271 271 272 270
239 240 242 243 244 245 244 244 247 248 248 248 247 247 247 248 249 250 250 253 255 256 257 259 261 263 265 268 270 270 275 274 270 268 267 265 262 263 267 269 269 271 273 270
238 239 241 242 243 244 243 244 247 249 248 249 248 248 249 249 251 252 251 253 255 258 259 258 259 260 261 265 269 265 266 265 265 264 265 265 265 265 269 271 271 272 273 271
240 241 241 242 243 243 244 247 248 249 249 249 249 249 250 250 251 252 251 252 254 256 258 257 256 259 260 264 266 261 259 260 261 262 262 263 265 267 270 272 272 271 273 273
241 240 240 242 244 245 247 249 248 248 249 249 249 249 249 250 252 254 252 252 253 253 256 254 254 256 260 263 264 262 258 259 260 261 261 262 265 268 269 272 272 272 273 275
239 238 241 242 241 242 247 248 247 247 248 246 247 249 250 252 253 253 252 251 251 253 254 252 252 254 256 258 261 262 260 260 262 263 264 265 266 269 269 270 270 271 273 274
238 237 240 241 241 243 247 249 244 245 246 246 248 251 252 252 252 253 252 250 249 251 251 251 254 255 256 257 258 260 260 260 263 263 263 264 267 269 268 266 267 270 272 273
241 240 240 240 243 245 245 246 246 244 245 248 248 250 254 253 251 251 249 248 248 249 249 250 250 253 256 256 256 259 259 260 263 263 263 264 265 266 266 266 267 270 272 273
Height
5845 5848 5851 5854 5855 5857 5858 5860 5862 5864 5864 5865 5867 5869 5870 5871 5872 5873 5873 5874 5874 5874 5874 5874 5874 5874 5873 5873 5872 5871 5870 5869 5868 5867 5865 5864 5862 5860 5859 5858 5856 5855 5854 5854
5841 5844 5847 5848 5850 5852 5853 5856 5858 5860 5860 5861 5862 5865 5866 5867 5868 5870 5870 5870 5871 5871 5871 5871 5871 5871 5871 5870 5870 5869 5868 5867 5866 5865 5863 5861 5860 5858 5857 5855 5854 5853 5852 5852
5836 5840 5841 5842 5845 5847 5849 5852 5854 5855 5855 5856 5858 5860 5862 5863 5864 5866 5867 5867 5867 5867 5868 5868 5868 5868 5867 5867 5867 5866 5866 5865 5864 5862 5861 5859 5858 5856 5855 5854 5852 5851 5850 5850
5830 5833 5835 5837 5839 5842 5844 5847 5848 5849 5850 5851 5853 5855 5858 5858 5860 5862 5863 5863 5863 5864 5864 5864 5864 5864 5864 5864 5864 5863 5863 5862 5861 5860 5858 5857 5856 5854 5853 5851 5850 5849 5848 5847
5824 5827 5829 5832 5835 5837 5839 5841 5842 5843 5844 5846 5848 5850 5853 5854 5856 5857 5859 5859 5859 5860 5860 5860 5861 5861 5861 5861 5860 5860 5859 5859 5858 5857 5855 5854 5853 5852 5850 5849 5848 5846 5845 5844
5818 5821 5823 5826 5829 5831 5833 5835 5836 5837 5839 5841 5844 5845 5848 5850 5852 5853 5854 5854 5855 5855 5856 5856 5857 5857 5857 5857 5857 5857 5856 5856 5855 5854 5852 5851 5850 5849 5847 5846 5845 5844 5843 5842
5812 5815 5817 5820 5822 5824 5827 5829 5831 5832 5833 5836 5839 5840 5843 5846 5847 5848 5849 5849 5850 5851 5851 5852 5853 5853 5853 5853 5853 5853 5852 5852 5851 5850 5849 5847 5846 5845 5844 5843 5842 5841 5840 5839
5806 5809 5811 5813 5816 5819 5821 5823 5826 5827 5829 5831 5833 5834 5839 5841 5842 5843 5844 5845 5846 5847 5847 5848 5848 5849 5849 5849 5849 5849 5848 5848 5847 5846 5845 5844 5842 5842 5841 5840 5838 5837 5836 5836
5799 5803 5806 5808 5811 5813 5815 5817 5820 5822 5823 5825 5827 5830 5833 5835 5837 5838 5839 5840 5841 5842 5843 5844 5844 5844 5844 5844 5844 5844 5843 5843 5843 5842 5841 5839 5839 5838 5837 5836 5835 5834 5833 5833
5793 5796 5800 5802 5804 5807 5810 5812 5814 5815 5817 5819 5821 5824 5828 5830 5832 5834 5835 5836 5836 5838 5839 5839 5839 5839 5839 5839 5839 5839 5839 5838 5838 5837 5836 5835 5835 5834 5833 5833 5832 5831 5830 5830
5786 5790 5793 5796 5798 5801 5803 5806 5808 5810 5811 5813 5816 5821 5823 5825 5827 5828 5830 5831 5832 5833 5834 5834 5834 5834 5834 5834 5834 5834 5833 5833 5833 5832 5832 5831 5830 5829 5829 5828 5828 5827 5827 5826
5780 5783 5786 5790 5792 5795 5797 5800 5802 5804 5806 5808 5810 5817 5818 5820 5821 5823 5824 5825 5826 5827 5828 5829 5829 5830 5830 5829 5829 5828 5828 5828 5828 5827 5827 5827 5826 5825 5824 5824 5823 5823 5823 5823
5774 5777 5780 5783 5787 5789 5790 5793 5795 5798 5800 5802 5804 5811 5812 5814 5815 5817 5818 5820 5821 5822 5823 5824 5824 5824 5824 5824 5824 5823 5823 5823 5822 5822 5822 5822 5822 5821 5820 5820 5819 5819 5819 5819
5767 5770 5774 5777 5780 5782 5785 5787 5790 5792 5794 5796 5799 5803 5806 5808 5809 5811 5813 5814 5815 5817 5818 5819 5819 5819 5819 5819 5819 5818 5818 5817 5817 5817 5817 5818 5817 5817 5816 5816 5815 5815 5815 5815
5761 5764 5767 5770 5773 5776 5779 5781 5783 5785 5788 5790 5793 5796 5799 5801 5803 5805 5807 5808 5810 5811 5812 5813 5813 5814 5814 5814 5813 5812 5812 5813 5812 5813 5813 5813 5813 5813 5812 5812 5811 5811 5811 5811
5754 5757 5760 5763 5766 5769 5772 5775 5777 5779 5781 5783 5786 5789 5792 5794 5796 5799 5801 5803 5804 5806 5807 5808 5808 5809 5809 5808 5808 5808 5808 5808 5808 5808 5808 5808 5809 5809 5808 5808 5808 5807 5807 5807
5748 5751 5754 5757 5760 5762 5765 5768 5770 5772 5774 5777 5779 5783 5785 5787 5789 5792 5795 5797 5798 5800 5801 5802 5803 5803 5804 5803 5803 5803 5804 5804 5804 5804 5804 5804 5804 5804 5804 5804 5804 5804 5803 5803
5742 5745 5747 5750 5754 5755 5761 5762 5763 5765 5768 5770 5773 5775 5778 5780 5783 5785 5788 5790 5793 5794 5795 5796 5796 5797 5797 5797 5798 5798 5798 5799 5799 5798 5799 5799 5799 5799 5799 5799 5800 5800 5799 5799
5736 5739 5741 5744 5746 5748 5752 5754 5756 5759 5762 5764 5766 5769 5771 5774 5776 5779 5782 5784 5786 5788 5789 5790 5791 5791 5792 5792 5792 5792 5793 5793 5794 5794 5794 5794 5795 5795 5795 5795 5795 5795 5795 5795
5729 5732 5735 5737 5739 5742 5747 5749 5750 5754 5755 5758 5760 5762 5765 5768 5771 5774 5776 5777 5779 5781 5782 5784 5785 5786 5786 5786 5786 5787 5787 5788 5788 5789 5789 5790 5790 5790 5791 5791 5791 5791 5790 5791
5723 5726 5728 5731 5733 5736 5740 5742 5745 5748 5750 5752 5754 5756 5759 5762 5765 5767 5769 5771 5773 5774 5776 5777 5779 5780 5780 5781 5781 5781 5782 5783 5783 5784 5784 5785 5785 5786 5786 5786 5786 5786 5786 5786
5717 5720 5723 5725 5727 5732 5734 5736 5739 5741 5743 5745 5748 5750 5752 5755 5758 5760 5763 5764 5766 5768 5770 5771 5773 5774 5774 5775 5775 5776 5777 5777 5778 5778 5779 5780 5780 5780 5780 5780 5781 5781 5781 5782
5712 5715 5717 5721 5724 5726 5727 5729 5732 5734 5737 5739 5742 5744 5746 5749 5751 5754 5756 5758 5759 5761 5763 5765 5766 5768 5769 5769 5770 5770 5771 5772 5772 5773 5773 5774 5774 5775 5775 5775 5775 5776 5776 5776
5707 5710 5713 5715 5718 5720 5721 5723 5725 5728 5730 5733 5736 5738 5740 5743 5745 5747 5749 5751 5753 5755 5757 5758 5759 5760 5762 5763 5764 5765 5765 5766 5767 5767 5767 5768 5768 5769 5769 5769 5769 5770 5770 5771
5703 5705 5707 5709 5712 5714 5716 5718 5720 5722 5725 5728 5730 5732 5734 5736 5739 5740 5742 5744 5746 5748 5750 5752 5753 5754 5755 5757 5758 5758 5759 5759 5760 5761 5761 5762 5762 5762 5762 5763 5763 5764 5764 5764
5698 5700 5702 5705 5707 5709 5711 5713 5715 5718 5720 5722 5724 5726 5728 5729 5732 5734 5735 5737 5739 5742 5744 5746 5747 5748 5749 5750 5751 5752 5752 5753 5754 5754 5754 5755 5755 5756 5756 5757 5757 5757 5758 5758